Wind_Speed
6 6 7 7 6 6 5 5 5 5 5 5 5 5 6 5 5 5 4 5 5 5 4 5 5 4 3 3 3 4 4 5 6 7 7 8 8 8 8 9 9 10 10
5 5 6 6 6 5 5 4 4 4 4 4 5 5 5 5 5 5 5 5 5 5 5 5 5 5 4 4 5 5 6 6 7 7 8 8 8 8 9 9 10 10 11
4 5 5 5 5 5 4 4 3 3 4 4 4 4 5 5 5 5 5 5 5 5 5 5 5 5 5 5 6 6 6 7 8 8 9 9 9 9 9 10 10 11 12
4 5 5 5 5 4 4 4 3 3 3 3 3 4 4 4 4 4 5 5 5 4 4 5 5 5 5 6 6 7 7 8 8 9 9 10 9 9 10 10 11 11 12
4 4 5 5 4 4 4 3 3 2 1 2 3 3 4 4 4 4 5 5 5 5 5 5 6 6 6 7 7 8 8 9 9 9 10 10 10 10 11 11 11 12 13
5 5 5 5 4 4 4 4 3 3 2 2 2 3 4 4 4 5 6 6 6 6 6 6 7 7 7 8 9 9 10 10 11 11 11 11 11 11 12 12 12 13 14
6 6 6 5 5 5 5 5 5 5 4 3 3 3 4 4 5 5 6 7 7 7 7 7 8 9 9 9 10 11 11 11 11 11 12 13 13 13 13 13 14 14 15
7 7 7 7 7 7 7 6 6 5 4 4 4 4 5 5 6 6 7 7 8 8 8 9 9 10 11 11 11 12 12 12 13 13 13 14 14 14 15 15 15 15 16
9 9 9 8 8 8 8 8 8 7 7 6 6 6 6 6 7 7 8 8 9 9 10 10 10 11 12 12 13 13 13 13 14 15 15 15 15 15 16 16 16 17 17
9 9 9 9 10 10 10 10 10 9 8 7 6 7 7 8 8 8 9 10 11 10 11 12 12 13 14 14 15 14 15 15 16 16 16 16 16 16 16 17 18 18 19
10 10 10 11 11 12 12 11 11 10 10 9 8 8 8 10 9 9 10 11 11 12 12 13 14 14 15 16 16 16 16 16 16 16 17 17 17 17 17 18 19 19 20
11 12 12 13 13 13 13 12 12 11 11 11 11 11 11 11 11 11 11 12 13 13 14 15 16 16 17 17 18 18 18 18 18 18 18 18 18 18 19 19 20 20 20
12 13 13 14 14 14 14 13 13 13 13 13 13 12 12 13 13 14 14 15 16 16 17 17 17 18 19 19 19 19 19 19 19 19 19 19 19 20 20 20 21 21 21
13 13 14 14 15 15 15 15 15 15 15 15 14 14 15 15 16 16 16 17 18 18 19 19 20 20 20 21 20 20 20 20 20 19 20 21 21 21 21 21 21 22 22
14 14 14 15 15 16 16 17 17 17 17 17 17 17 17 18 18 18 18 19 20 20 21 21 21 22 22 22 22 22 21 21 21 21 21 21 22 22 22 22 22 23 23
16 17 17 17 17 18 18 19 18 19 18 19 19 19 19 20 20 21 21 22 22 22 22 22 23 23 24 24 23 23 22 22 22 22 22 23 23 23 23 23 23 24 24
19 18 18 19 19 20 20 21 20 21 21 21 22 22 21 22 23 23 23 24 24 23 23 23 24 24 24 25 24 24 24 24 23 24 24 23 23 24 24 24 24 24 25
21 21 20 20 21 22 22 22 22 23 23 23 24 24 24 25 25 25 25 24 24 24 24 25 25 25 25 25 25 26 25 25 25 25 25 25 25 25 24 24 25 25 25
23 23 22 22 23 23 24 24 24 24 25 25 25 25 25 26 26 26 26 26 26 26 26 26 26 26 25 26 26 26 26 26 26 26 26 26 26 25 25 26 26 26 26
25 25 25 25 26 26 26 26 26 26 26 27 27 27 27 27 28 27 27 27 28 28 27 27 27 26 26 27 27 27 28 28 28 28 28 27 27 27 27 27 26 27 26
27 27 27 27 28 28 28 27 27 28 28 29 29 30 29 29 29 29 29 29 29 29 29 28 28 28 28 28 28 28 29 29 29 29 28 28 27 27 27 27 27 27 27
27 27 28 29 29 29 29 29 29 29 30 30 31 31 31 31 31 31 31 31 30 29 29 29 29 28 29 29 29 29 29 29 29 29 28 28 27 28 28 28 28 28 27
28 28 29 30 30 30 30 31 31 31 31 31 32 32 33 32 32 32 32 31 31 30 29 29 30 29 30 30 30 29 29 29 29 29 28 28 28 28 29 29 28 28 27
29 30 30 31 31 31 31 32 32 32 32 32 33 33 33 33 32 32 32 31 31 31 31 31 31 31 31 31 30 29 29 29 29 29 29 28 28 29 29 29 29 28 27
30 31 31 32 32 32 32 33 33 32 31 31 32 32 33 32 32 32 32 31 31 32 32 32 32 31 31 31 31 30 30 30 30 29 29 28 29 29 29 29 29 28 28
32 32 32 33 33 33 33 33 33 32 32 32 32 32 32 32 32 32 32 32 33 32 32 32 32 32 31 31 31 30 30 30 30 29 29 29 28 29 29 28 28 27 27
Wind_Direction
26 23 25 27 26 27 34 43 50 60 57 55 57 57 52 48 46 47 45 36 28 26 30 31 28 25 17 9 357 346 340 332 327 323 318 315 312 309 307 307 305 300 298
10 12 14 20 24 22 24 29 42 53 53 51 54 53 50 47 47 44 41 34 24 22 23 23 21 16 10 359 347 339 335 332 328 322 317 313 310 307 306 305 303 300 300
355 1 5 8 12 14 16 16 22 34 44 47 49 48 46 41 41 40 36 31 26 24 17 18 11 5 360 348 340 337 334 329 325 321 320 315 309 307 305 304 301 299 298
333 344 350 354 2 8 13 8 8 24 37 37 43 37 33 30 30 29 28 23 14 10 6 358 350 350 347 343 340 339 336 331 326 322 317 314 308 306 303 302 300 299 298
319 324 329 335 345 357 4 11 7 355 1 4 11 21 16 12 11 15 15 10 4 359 351 343 341 340 340 338 336 335 333 331 327 323 320 316 310 306 303 302 300 298 296
311 314 321 320 325 335 341 340 342 334 302 303 324 343 354 357 359 3 1 356 351 348 341 332 334 335 333 333 330 327 327 326 325 323 320 317 312 306 304 302 301 298 295
300 303 310 311 305 309 315 318 321 318 295 275 285 308 331 342 341 341 345 348 344 341 337 332 328 327 323 324 324 322 322 322 324 323 319 317 314 308 304 302 300 297 297
292 292 294 297 294 296 299 303 310 310 291 276 278 289 312 322 321 325 329 335 335 333 331 327 323 323 320 319 319 318 315 317 316 316 316 315 313 310 307 303 303 302 301
286 287 285 287 285 288 292 296 298 295 288 280 286 292 304 312 314 315 319 322 325 326 326 324 321 320 319 318 316 315 313 314 314 314 314 313 312 310 308 305 302 303 304
277 278 276 277 280 284 288 294 293 286 286 291 292 291 297 303 305 310 311 313 315 318 319 319 317 317 315 316 317 314 313 312 311 311 312 311 311 310 308 305 302 302 303
270 272 273 273 275 279 285 291 290 285 285 286 288 292 294 298 303 308 307 308 312 315 316 318 316 314 313 312 312 313 313 311 309 309 309 310 310 310 309 307 303 302 302
269 269 270 271 273 274 280 285 285 285 286 287 285 289 292 295 298 304 306 307 308 311 314 315 315 313 311 311 311 311 313 311 308 307 308 308 309 307 306 307 305 303 302
269 268 269 271 271 271 274 277 280 282 283 285 288 292 298 300 300 303 304 305 306 306 307 307 310 311 310 310 310 310 310 310 310 307 306 307 308 308 307 306 305 304 302
270 270 270 271 272 273 271 270 277 281 281 281 284 288 292 295 297 299 300 302 304 304 303 303 305 307 308 308 309 308 307 308 309 308 307 307 307 308 308 306 306 305 304
272 273 273 272 273 274 272 272 274 276 277 277 280 284 288 291 294 296 297 299 301 302 302 302 302 303 305 306 307 306 305 306 307 307 307 308 308 307 307 306 305 305 303
270 273 275 275 275 276 275 274 273 273 276 278 280 282 286 290 291 292 294 296 298 299 299 300 299 301 302 303 304 304 304 305 305 306 306 306 306 306 305 304 304 304 302
268 271 272 273 274 274 275 274 273 273 274 277 278 279 282 286 288 290 293 294 296 296 296 298 298 298 299 301 303 303 304 305 305 305 305 305 305 305 303 303 305 304 303
267 268 269 270 273 274 273 272 273 273 274 274 277 278 281 285 288 290 291 294 295 297 296 297 297 297 299 301 302 303 304 304 304 304 303 303 303 305 304 304 305 306 304
268 268 268 269 271 274 275 271 271 272 272 274 276 279 281 285 288 289 290 291 292 294 296 299 298 298 298 301 301 301 302 303 303 304 304 303 303 304 304 306 306 306 305
267 268 268 269 270 272 272 271 271 272 274 276 278 280 282 284 287 289 289 289 291 292 294 296 295 296 297 299 299 299 300 301 301 301 302 302 302 303 304 305 305 305 304
264 266 268 269 270 271 271 271 272 272 272 275 277 280 282 284 285 287 290 291 291 292 293 295 294 295 295 296 296 297 298 299 298 298 298 298 299 301 302 302 302 302 301
265 265 266 268 270 271 271 270 271 272 271 273 275 278 282 284 284 285 287 289 291 292 293 294 293 294 295 295 295 294 296 297 296 296 295 295 295 297 299 300 300 301 300
267 266 266 267 269 269 270 270 270 272 272 273 277 278 280 283 283 284 286 287 289 291 293 293 293 293 293 294 294 293 293 294 294 293 293 293 293 294 296 297 298 300 300
265 265 266 267 268 268 269 268 270 271 272 274 276 278 279 280 281 282 285 287 289 290 291 292 293 292 292 293 292 291 291 293 291 291 292 292 292 292 293 295 295 296 297
263 263 263 264 265 267 268 268 270 272 273 273 276 278 279 280 280 282 284 286 288 290 292 292 292 292 292 292 292 289 289 290 289 289 290 291 292 292 292 293 293 294 296
264 264 262 263 265 266 268 270 270 270 273 274 276 278 281 280 279 280 281 283 286 289 290 291 291 291 291 291 291 289 289 290 289 288 289 290 291 291 291 292 292 293 295
Height
5914 5913 5912 5910 5909 5907 5907 5906 5905 5904 5903 5902 5901 5901 5900 5899 5899 5898 5897 5897 5896 5895 5894 5893 5892 5892 5891 5890 5889 5889 5888 5887 5886 5885 5884 5883 5882 5881 5880 5879 5877 5876 5875
5915 5914 5913 5911 5910 5908 5907 5906 5905 5905 5904 5903 5902 5902 5901 5900 5900 5899 5898 5897 5896 5895 5894 5894 5893 5892 5891 5890 5889 5888 5887 5886 5885 5884 5883 5882 5881 5879 5878 5877 5875 5874 5873
5916 5915 5913 5912 5910 5909 5907 5907 5906 5905 5904 5903 5903 5902 5902 5901 5900 5899 5898 5897 5896 5896 5895 5894 5893 5892 5891 5890 5889 5887 5886 5885 5883 5882 5881 5880 5879 5878 5876 5875 5873 5872 5871
5916 5915 5913 5912 5910 5909 5908 5907 5906 5905 5904 5904 5903 5903 5902 5901 5900 5899 5898 5897 5896 5895 5895 5894 5893 5891 5890 5889 5888 5886 5885 5883 5882 5880 5879 5878 5876 5875 5874 5873 5871 5869 5868
5916 5914 5913 5912 5911 5909 5908 5907 5906 5906 5905 5904 5903 5903 5902 5901 5900 5899 5898 5897 5896 5895 5894 5893 5892 5891 5889 5888 5887 5885 5884 5882 5880 5879 5877 5875 5874 5873 5871 5870 5868 5867 5865
5915 5914 5913 5912 5911 5910 5909 5908 5907 5905 5905 5904 5903 5903 5902 5901 5900 5899 5898 5897 5896 5894 5893 5892 5891 5890 5889 5887 5886 5884 5882 5880 5878 5876 5875 5873 5871 5870 5868 5867 5865 5863 5862
5914 5914 5913 5912 5911 5910 5909 5908 5907 5905 5904 5903 5903 5902 5901 5901 5900 5899 5898 5896 5895 5894 5892 5891 5890 5889 5887 5886 5884 5882 5880 5878 5876 5874 5872 5870 5868 5867 5865 5863 5861 5859 5857
5913 5913 5912 5911 5910 5909 5908 5907 5906 5905 5903 5902 5902 5901 5901 5900 5899 5898 5897 5896 5894 5893 5891 5890 5889 5887 5885 5884 5882 5880 5878 5876 5874 5872 5869 5867 5865 5863 5861 5859 5858 5856 5854
5912 5911 5910 5909 5909 5908 5907 5906 5905 5904 5902 5901 5901 5900 5900 5899 5898 5897 5896 5894 5893 5891 5890 5888 5887 5885 5883 5881 5879 5877 5875 5873 5871 5868 5866 5864 5861 5859 5857 5855 5853 5852 5850
5909 5909 5908 5908 5907 5906 5906 5905 5903 5902 5901 5900 5899 5899 5898 5898 5896 5895 5894 5893 5891 5890 5888 5886 5884 5882 5880 5878 5876 5874 5871 5869 5867 5865 5862 5860 5857 5855 5853 5851 5849 5847 5845
5906 5906 5906 5905 5905 5904 5904 5903 5901 5901 5900 5899 5898 5897 5897 5896 5894 5893 5892 5891 5889 5887 5886 5883 5881 5879 5877 5875 5872 5870 5868 5865 5863 5861 5858 5856 5853 5851 5849 5847 5844 5842 5840
5903 5903 5903 5902 5902 5902 5901 5901 5899 5898 5897 5897 5896 5895 5894 5894 5893 5891 5890 5888 5887 5885 5883 5881 5878 5876 5874 5871 5869 5866 5864 5861 5859 5856 5854 5852 5849 5847 5844 5842 5839 5837 5834
5900 5899 5899 5899 5899 5899 5898 5898 5897 5896 5895 5894 5894 5893 5892 5891 5890 5889 5887 5885 5884 5882 5880 5878 5875 5873 5870 5867 5865 5862 5859 5857 5855 5852 5850 5847 5845 5842 5839 5837 5834 5832 5829
5896 5896 5895 5895 5895 5895 5895 5894 5894 5893 5892 5891 5891 5890 5889 5888 5887 5885 5883 5882 5880 5878 5876 5873 5871 5869 5866 5863 5861 5858 5855 5853 5850 5847 5845 5842 5840 5837 5834 5832 5829 5826 5823
5893 5892 5892 5892 5891 5891 5891 5890 5890 5889 5888 5888 5887 5886 5885 5884 5883 5881 5879 5878 5875 5873 5871 5869 5866 5864 5861 5859 5856 5853 5851 5848 5845 5843 5840 5837 5834 5832 5829 5826 5823 5820 5818
5889 5888 5888 5887 5887 5887 5886 5886 5885 5885 5884 5884 5883 5882 5880 5879 5878 5876 5874 5872 5870 5868 5866 5863 5861 5859 5856 5854 5851 5848 5846 5843 5840 5837 5835 5832 5829 5826 5823 5820 5818 5815 5812
5884 5883 5883 5883 5883 5882 5881 5881 5880 5880 5879 5878 5878 5876 5875 5874 5872 5870 5868 5866 5864 5862 5860 5858 5855 5853 5851 5848 5845 5843 5840 5837 5835 5832 5829 5826 5823 5820 5817 5815 5812 5809 5805
5877 5878 5878 5877 5877 5876 5876 5875 5875 5874 5873 5873 5872 5871 5869 5868 5866 5864 5862 5859 5858 5856 5854 5852 5849 5847 5845 5842 5840 5837 5834 5831 5829 5826 5823 5820 5817 5814 5811 5808 5805 5802 5799
5871 5871 5871 5871 5871 5870 5870 5869 5868 5868 5867 5866 5865 5864 5863 5861 5859 5857 5855 5853 5851 5849 5847 5845 5843 5840 5838 5836 5833 5830 5828 5825 5823 5820 5817 5814 5811 5808 5805 5802 5799 5796 5793
5864 5864 5864 5864 5864 5863 5863 5862 5862 5861 5861 5860 5859 5857 5856 5855 5853 5850 5848 5846 5844 5842 5840 5838 5836 5834 5832 5829 5826 5824 5821 5819 5816 5813 5810 5807 5805 5802 5799 5796 5792 5789 5786
5856 5856 5857 5857 5856 5856 5856 5855 5854 5854 5853 5852 5851 5850 5849 5847 5845 5843 5841 5839 5837 5835 5833 5831 5829 5826 5824 5822 5819 5817 5814 5812 5809 5806 5803 5800 5797 5795 5792 5789 5786 5782 5779
5848 5848 5848 5848 5848 5848 5847 5847 5846 5846 5845 5844 5843 5842 5841 5839 5837 5835 5834 5831 5829 5827 5825 5823 5821 5818 5816 5814 5811 5809 5806 5804 5801 5798 5795 5792 5790 5787 5785 5781 5778 5775 5772
5839 5839 5840 5840 5840 5839 5839 5838 5838 5837 5836 5835 5834 5833 5832 5830 5829 5827 5825 5823 5821 5819 5817 5815 5812 5810 5808 5805 5803 5800 5798 5795 5793 5790 5787 5785 5782 5780 5777 5774 5771 5768 5765
5830 5831 5831 5831 5831 5830 5830 5829 5828 5828 5827 5826 5825 5824 5823 5821 5820 5818 5817 5815 5813 5810 5808 5806 5804 5801 5799 5796 5794 5791 5789 5787 5784 5782 5779 5777 5774 5772 5769 5767 5764 5761 5758
5822 5822 5822 5822 5822 5821 5820 5820 5819 5818 5818 5817 5816 5815 5814 5812 5811 5809 5808 5806 5804 5802 5800 5797 5795 5793 5790 5788 5785 5782 5780 5778 5775 5773 5771 5768 5766 5764 5761 5759 5756 5753 5751
5812 5812 5812 5812 5812 5811 5811 5810 5809 5809 5808 5808 5807 5806 5804 5803 5801 5800 5798 5796 5795 5793 5791 5788 5786 5784 5781 5779 5776 5774 5771 5769 5767 5764 5762 5760 5758 5756 5753 5751 5748 5746 5744